Location: Newark
(48.8604°N, 2.3376°E)
Time: 07:37:14
(UTC+00:00)

Envisat - Pass Details

Date: 07 October 2021
Orbit: 764 x 766 km, 98.2° (Epoch: 22 October)

Event Time Altitude Azimuth Distance (km) Brightness Sun altitude
Rises 04:49:06 0° 16° (NNE) 3,243 6.6 -12.3°
Reaches altitude 10° 04:51:28 10° 21° (NNE) 2,312 5.8 -11.9°
Maximum altitude 04:56:30 60° 101° (E) 878 3.7 -11.1°
Drops below altitude 10° 05:01:30 10° 181° (S) 2,295 5.4 -10.3°
Sets 05:03:49 0° 185° (S) 3,216 6.1 -9.9°
